Weather in Agoy

Russia / Krasnodar Krai     44°08′48″N   39°02′24″E
temp.,
°C
wind,
m/s
gust,
m/s
humid.,
%
clouds,
%
prec.,
mm/h
press.,
hPa
HPBL,
m
28 september, tue
tue2800:00+11ne338995 0.0 101774
03:00+10ne238992 0.0 101674
06:00+8ne349330 0.0 101796
09:00+12ne468083 0.1 1017329
12:00+15ne446161 0.0 1017650
15:00+16ne446153 0.0 1018754
18:00+13ne3575100 0.0 1018243
21:00+10ne348622 0.0 101992
29 september, wed
wed2900:00+10ne359034 0.0 1019152
03:00+10ne3685100 0.0 1019188
06:00+10ne4784100 0.0 1019226
09:00+13ne4975100 0.0 1019486
12:00+17ne685813 0.0 10191070
15:00+17ne79639 0.0 1019998
18:00+13ne7137160 0.0 1019798
21:00+11ne7157654 0.1 1020703
30 september, thu
thu3000:00+10ne614806 0.1 1020608
03:00+9ne6148114 0.1 1020602
06:00+9ne7167916 0.0 1021705
09:00+11ne817728 0.0 1021780
12:00+14ne914570 0.0 1021983
15:00+13ne1015633 0.0 1021873
18:00+9ne918750 0.0 1022735
21:00+8ne817730 0.0 1023700
1 october, fri
fri100:00+7ne615835 0.0 1023550
03:00+7ne612806 0.0 1023472
06:00+7ne612822 0.0 1023469
09:00+11ne611706 0.0 1023571
12:00+15ne710560 0.0 1023745
15:00+15ne811560 0.0 1023765
18:00+10ne59750 0.0 1024420
21:00+7ne58870 0.0 1025255
2 october, sat
sat200:00+6ne46910 0.0 1025162
03:00+5ne56955 0.0 1025125
06:00+5ne569618 0.0 1024134
09:00+10ne56710 0.0 1024278
12:00+16ne34530 0.0 1023639
15:00+18ne45460 0.0 10221193
18:00+13ne511660 0.0 1022482
21:00+8ne45890 0.0 1022103